This demonstration page uses our WeatherBlox Daily Observations layout. Learn more.

38.89511, -77.03637

Hourly Observations for September 10, 2016

Temp ( °F °C ) Dew Point ( °F °C ) Humidity (%) Winds ( mph kmh ) Pressure ( in mb ) Visibility ( mi km ) Precip ( " mm )
12:52 am 00:52 Mostly Cloudy 83 28.3 74 23.3 74 74 WSW 6 9 29.98 1015 10 16.0934 0 0
1:52 am 01:52 Clear 81 27.2 74 23.3 79 79 SSW 6 9 29.98 1015 10 16.0934 0 0
2:52 am 02:52 Mostly Clear 80 26.7 75 23.9 85 85 S 6 9 29.97 1015 10 16.0934 0 0
3:52 am 03:52 Mostly Clear 79 26.1 74 23.3 85 85 SSW 5 7 29.97 1015 10 16.0934 0 0
4:52 am 04:52 Clear 78 25.6 72 22.2 82 82 SSW 6 9 29.97 1015 10 16.0934 0 0
5:52 am 05:52 Mostly Clear 77 25 72 22.2 85 85 S 6 9 29.98 1015 10 16.0934 0 0
6:52 am 06:52 Mostly Cloudy 77 25 72 22.2 85 85 SW 6 9 30.01 1016 10 16.0934 0 0
7:52 am 07:52 Mostly Cloudy 79 26.1 73 22.8 82 82 SW 3 6 30.01 1016 10 16.0934 0 0
8:52 am 08:52 Mostly Cloudy 81 27.2 73 22.8 77 77 S 5 7 30.02 1017 10 16.0934 0 0
9:52 am 09:52 Mostly Cloudy 83 28.3 74 23.3 74 74 S 8 13 30.02 1017 10 16.0934 0 0
10:52 am 10:52 Mostly Cloudy 88 31.1 74 23.3 63 63 S 8 13 30.02 1017 10 16.0934 0 0
11:52 am 11:52 Partly Cloudy 91 32.8 74 23.3 57 57 S 10 17 30.01 1016 10 16.0934 0 0
12:52 pm 12:52 Mostly Cloudy 91 32.8 76 24.4 61 61 S 14 22 29.99 1016 10 16.0934 0 0
1:52 pm 13:52 Mostly Cloudy 93 33.9 76 24.4 58 58 S 12 19 29.98 1015 10 16.0934 0 0
2:52 pm 14:52 Mostly Cloudy 94 34.4 74 23.3 52 52 S 15 24 29.95 1014 10 16.0934 0 0
3:52 pm 15:52 Partly Cloudy 94 34.4 74 23.3 52 52 SSE 14 22 29.94 1014 10 16.0934 0 0
4:52 pm 16:52 Partly Cloudy 93 33.9 74 23.3 54 54 S 16 26 29.93 1014 10 16.0934 0 0
5:52 pm 17:52 Mostly Cloudy 90 32.2 77 25 66 66 S 16 26 29.92 1013 10 16.0934 0 0
6:52 pm 18:52 Mostly Cloudy 87 30.6 75 23.9 67 67 S 14 22 29.9 1013 10 16.0934 0 0
7:52 pm 19:52 Partly Cloudy 85 29.4 77 25 77 77 S 15 24 29.92 1013 10 16.0934 0 0
8:52 pm 20:52 Mostly Cloudy 84 28.9 77 25 80 80 S 14 22 29.94 1014 10 16.0934 0 0
9:52 pm 21:52 Cloudy 83 28.3 75 23.9 77 77 S 12 19 29.96 1015 10 16.0934 0 0
10:52 pm 22:52 Mostly Cloudy 82 27.8 75 23.9 79 79 S 13 20 29.96 1015 10 16.0934 0 0
11:52 pm 23:52 Mostly Cloudy 81 27.2 76 24.4 85 85 S 15 24 29.93 1013 10 16.0934 0 0

Powered by AerisWeather